Weather History for Gustavus, AK

Change the Weather History Date:

Tuesday, July 16, 2013

  Actual Average Record
Temperature  
Mean Temperature 58 °F -  
Max Temperature 69 °F 62 °F 78 °F (1996)
Min Temperature 46 °F 47 °F 34 °F (1985)
Degree Days  
Heating Degree Days 8    
Growing Degree Days 8 (Base 50)    
Moisture  
Dew Point 51 °F    
Average Humidity 81    
Maximum Humidity 100    
Minimum Humidity 60    
Precipitation  
Precipitation 0.00 in - - ()
Sea Level Pressure  
Sea Level Pressure 30.13 in    
Wind  
Wind Speed 3 mph (SSW)    
Max Wind Speed 13 mph    
Max Gust Speed -    
Visibility 8 miles    
Events      
Averages and records for this station are not official NWS values.
T = Trace of Precipitation, MM = Missing Value Source: NWS Daily Summary

Daily Weather History Graph

Daily Weather History Graph

Search for Another Location

Airport:

Trip Planner

Search our weather history database for the weather conditions in past years. The results will help you decide how hot, cold, wet, or windy it might be!

Date:

Astronomy

Jul. 16, 2013 Rise Set
Actual Time 4:22 AM AKDT 9:54 PM AKDT
Civil Twilight 3:16 AM AKDT 10:59 PM AKDT
Nautical Twilight 1:41 AM AKDT 12:36 AM AKDT
Astronomical Twilight Sun does not rise Sun does not rise
Moon 3:09 PM AKDT (7/16) No Moon Set
Length of Visible Light 19h 42m
Length of Day
17h 31m
First Quarter, 58% of the Moon is Illuminated
Jul 16
First Quarter
Jul 22
Full
Jul 29
Last Quarter
Aug 6
New
Aug 14
First Quarter

Hourly Weather History & Observations

Time (AKDT) Temp. Dew Point Humidity Pressure Visibility Wind Dir Wind Speed Gust Speed Precip Events Conditions
12:16 AM - - N/A% 30.20 in 10.0 mi Calm Calm - N/A   Clear
12:36 AM - - N/A% 30.20 in 10.0 mi Calm Calm - N/A   Clear
12:56 AM - - N/A% 30.20 in 10.0 mi Calm Calm - N/A   Clear
1:16 AM - - N/A% 30.20 in 10.0 mi Calm Calm - N/A   Clear
1:36 AM - - N/A% 30.20 in 10.0 mi Calm Calm - N/A   Clear
1:56 AM 48.2 °F 46.4 °F 93% 30.20 in 10.0 mi SE 3.5 mph - N/A   Clear
2:16 AM 50.0 °F 48.2 °F 94% 30.21 in 10.0 mi Calm Calm - N/A   Clear
2:36 AM 48.2 °F 46.4 °F 93% 30.21 in 10.0 mi Calm Calm - N/A   Clear
2:56 AM 48.2 °F 44.6 °F 87% 30.20 in 10.0 mi Calm Calm - N/A   Clear
3:16 AM 48.2 °F 46.4 °F 93% 30.20 in 10.0 mi Calm Calm - N/A   Clear
3:36 AM 48.2 °F 44.6 °F 87% 30.20 in 7.0 mi Calm Calm - N/A   Clear
3:56 AM 46.4 °F 44.6 °F 93% 30.20 in 1.0 mi Calm Calm - N/A   Mostly Cloudy
4:16 AM 46.4 °F 44.6 °F 93% 30.20 in 8.0 mi Calm Calm - N/A   Mostly Cloudy
4:36 AM 46.4 °F 46.4 °F 100% 30.19 in 1.2 mi Calm Calm - N/A   Overcast
4:56 AM 46.4 °F 44.6 °F 93% 30.19 in 0.2 mi Calm Calm - N/A   Overcast
5:16 AM 46.4 °F 46.4 °F 100% 30.19 in 0.2 mi Calm Calm - N/A   Overcast
5:36 AM 48.2 °F 46.4 °F 93% 30.19 in 0.2 mi Calm Calm - N/A   Overcast
5:56 AM 48.2 °F 46.4 °F 93% 30.19 in 0.2 mi Calm Calm - N/A   Overcast
6:16 AM 48.2 °F 48.2 °F 100% 30.19 in 0.2 mi Calm Calm - N/A   Overcast
6:36 AM 50.0 °F 48.2 °F 94% 30.19 in 0.2 mi Calm Calm - N/A   Overcast
6:56 AM 50.0 °F 48.2 °F 94% 30.18 in 0.2 mi Calm Calm - N/A   Overcast
7:16 AM 51.8 °F 48.2 °F 88% 30.19 in 0.8 mi Calm Calm - N/A   Overcast
7:36 AM 51.8 °F 50.0 °F 94% 30.19 in 7.0 mi Calm Calm - N/A   Mostly Cloudy
7:56 AM 53.6 °F 51.8 °F 94% 30.18 in 10.0 mi Calm Calm - N/A   Partly Cloudy
8:16 AM 55.4 °F 51.8 °F 88% 30.18 in 10.0 mi Calm Calm - N/A   Clear
8:36 AM 57.2 °F 53.6 °F 88% 30.17 in 10.0 mi West 5.8 mph - N/A   Clear
8:56 AM - - N/A% 30.17 in 10.0 mi WSW 4.6 mph - N/A   Clear
9:16 AM - - N/A% 30.16 in 10.0 mi SSW 4.6 mph - N/A   Clear
9:36 AM - - N/A% 30.15 in 10.0 mi SW 5.8 mph - N/A   Partly Cloudy
9:56 AM - - N/A% 30.15 in 10.0 mi SSW 5.8 mph - N/A   Partly Cloudy
10:16 AM - - N/A% 30.15 in 10.0 mi South 6.9 mph - N/A   Clear
10:36 AM - - N/A% 30.15 in 10.0 mi South 6.9 mph - N/A   Clear
10:56 AM - - N/A% 30.14 in 10.0 mi SSW 6.9 mph - N/A   Clear
11:16 AM - - N/A% 30.14 in 10.0 mi SSW 8.1 mph - N/A   Clear
11:36 AM - - N/A% 30.14 in 10.0 mi SSW 8.1 mph - N/A   Clear
11:56 AM - - N/A% 30.13 in 10.0 mi SW 8.1 mph - N/A   Clear
12:16 PM - - N/A% 30.13 in 10.0 mi SSW 8.1 mph - N/A   Clear
12:36 PM - - N/A% 30.12 in 10.0 mi SW 8.1 mph - N/A   Clear
12:56 PM 68.0 °F 55.4 °F 64% 30.13 in 10.0 mi SSW 10.4 mph - N/A   Clear
1:16 PM 68.0 °F 55.4 °F 64% 30.12 in 10.0 mi SW 8.1 mph - N/A   Clear
1:36 PM 68.0 °F 55.4 °F 64% 30.12 in 10.0 mi SW 10.4 mph - N/A   Clear
1:56 PM 69.8 °F 55.4 °F 60% 30.12 in 10.0 mi SW 9.2 mph - N/A   Clear
2:16 PM 68.0 °F 55.4 °F 64% 30.11 in 10.0 mi SSW 11.5 mph - N/A   Clear
2:36 PM 68.0 °F 53.6 °F 60% 30.11 in 10.0 mi SW 8.1 mph - N/A   Clear
2:56 PM 68.0 °F 53.6 °F 60% 30.10 in 10.0 mi SW 10.4 mph - N/A   Clear
3:16 PM 66.2 °F 53.6 °F 64% 30.10 in 10.0 mi WSW 9.2 mph - N/A   Clear
3:36 PM 66.2 °F 53.6 °F 64% 30.09 in 10.0 mi SW 11.5 mph - N/A   Clear
3:56 PM 66.2 °F 53.6 °F 64% 30.09 in 10.0 mi SW 12.7 mph - N/A   Clear
4:16 PM 66.2 °F 53.6 °F 64% 30.09 in 10.0 mi WSW 12.7 mph - N/A   Clear
4:36 PM 66.2 °F 53.6 °F 64% 30.08 in 10.0 mi WSW 12.7 mph - N/A   Clear
4:56 PM 64.4 °F 53.6 °F 68% 30.08 in 10.0 mi SSW 6.9 mph - N/A   Clear
5:16 PM 64.4 °F 53.6 °F 68% 30.07 in 10.0 mi SSW 8.1 mph - N/A   Clear
5:36 PM 64.4 °F 53.6 °F 68% 30.07 in 10.0 mi SSW 10.4 mph - N/A   Clear
5:56 PM 62.6 °F 53.6 °F 72% 30.07 in 10.0 mi SW 5.8 mph - N/A   Clear
6:16 PM 64.4 °F 53.6 °F 68% 30.06 in 10.0 mi SSW 6.9 mph - N/A   Clear
6:36 PM - - N/A% 30.06 in 10.0 mi SW 8.1 mph - N/A   Clear
6:56 PM - - N/A% 30.06 in 10.0 mi SSW 4.6 mph - N/A   Clear
7:16 PM - - N/A% 30.06 in 10.0 mi South 4.6 mph - N/A   Clear
7:36 PM - - N/A% 30.06 in 10.0 mi SSW 5.8 mph - N/A   Clear
7:56 PM 59.0 °F 51.8 °F 77% 30.06 in 10.0 mi SSW 6.9 mph - N/A   Clear
8:16 PM - - N/A% 30.05 in 10.0 mi SW 6.9 mph - N/A   Clear
8:36 PM - - N/A% 30.05 in 10.0 mi SSW 3.5 mph - N/A   Clear
8:56 PM - - N/A% 30.05 in 10.0 mi Calm Calm - N/A   Clear
9:16 PM 57.2 °F 51.8 °F 82% 30.06 in 10.0 mi SW 4.6 mph - N/A   Clear
9:36 PM 57.2 °F 51.8 °F 82% 30.06 in 10.0 mi SW 4.6 mph - N/A   Clear
9:56 PM 57.2 °F 51.8 °F 82% 30.06 in 10.0 mi Calm Calm - N/A   Clear
10:16 PM 57.2 °F 51.8 °F 82% 30.06 in 10.0 mi SSW 4.6 mph - N/A   Clear
10:36 PM 55.4 °F 51.8 °F 88% 30.06 in 10.0 mi Calm Calm - N/A   Clear
10:56 PM 55.4 °F 51.8 °F 88% 30.06 in 10.0 mi ESE 3.5 mph - N/A   Clear
11:16 PM 55.4 °F 51.8 °F 88% 30.06 in 10.0 mi Calm Calm - N/A   Clear
11:36 PM 55.4 °F 51.8 °F 88% 30.06 in 5.0 mi Calm Calm - N/A   Clear
11:56 PM 55.4 °F 51.8 °F 88% 30.06 in 10.0 mi Calm Calm - N/A   Clear